Location: *
(24.1434°N, 56.8729°E)
Time: 17:53:16
(UTC+00:00)

CZ-2D R/B - Pass Details

Date: 09 April 2020
Orbit: 522 x 537 km, 97.4° (Epoch: 05 June)

Event Time Altitude Azimuth Distance (km) Brightness Sun altitude
Rises 14:55:08 0° 164° (SSE) 2,642 6.5 -6.0°
Reaches altitude 10° 14:57:15 10° 161° (SSE) 1,755 5.6 -6.5°
Maximum altitude 15:01:01 70° 78° (ENE) 557 3.2 -7.4°
Drops below altitude 10° 15:04:47 10° 354° (N) 1,758 6.1 -8.2°
Sets 15:06:53 0° 352° (N) 2,648 7.1 -8.7°
